Simultaneous Nadir Overpasses (SNOs) Predictions

Prediction of SNOs between TERRA and METOP-C Satellite Orbit:

Table of predicted SNOs for the next 14.0 days since TLE Epoch: 7/9/2022
Index Date (TERRA) Time (TERRA) Lat,Lon (TERRA) SZA (TERRA ) Date (METOP-C) Time (METOP-C) Lat,Lon (METOP-C) SZA (METOP-C ) Distance(km) Time Diff (sec)
1 07/10/2022 19:52:11 81.18, -77.21 61.13 07/10/2022 19:51:17 81.18, -77.03 61.12 3.08 54
2 07/10/2022 20:41:37 -81.19, 90.68 118.84 07/10/2022 20:41:58 -81.19, 90.61 118.84 1.33 21
3 07/13/2022 15:26:20 81.16, -11.04 61.46 07/13/2022 15:25:40 81.16, -10.97 61.46 1.30 40
4 07/13/2022 16:15:46 -81.18, 156.88 118.49 07/13/2022 16:16:20 -81.19, 157.05 118.45 3.05 34
5 07/16/2022 11:00:28 81.16, 55.43 61.89 07/16/2022 11:00:02 81.16, 55.44 61.89 0.65 26
6 07/16/2022 11:49:54 -81.18,-136.63 118.06 07/16/2022 11:50:42 -81.19,-136.55 118.02 1.56 48
7 07/19/2022 06:34:34 81.18, 122.17 62.42 07/19/2022 06:34:22 81.18, 122.21 62.41 0.71 12
8 07/19/2022 07:24:00 -81.20, -69.86 117.53 07/19/2022 07:25:02 -81.20, -69.80 117.50 1.06 62
9 07/22/2022 01:19:17 -81.15, 20.50 117.14 07/22/2022 01:18:06 -81.15, 20.52 117.17 0.52 71



Historial Predications of SNOs between TERRA and METOP-C
